[[{"header":{"parameterUnit":"m.s-1","parameterCategory":1,"la1":30.2991,"la2":30.254,"lo1":-89.0895,"lo2":-89.0444,"dy":0.0017,"dx":0.0017,"nx":28,"ny":28,"refTime":"2025-09-05T21:00:00:Z","depth":0,"parameterNumber":2,"parameterNumberName":"U-component_of_WINDS"},"data":[0,0,0,0,0,0,0,0,0,0,0,0,0,0,0,0,0,0,0,0,0,0,0,0,0,0,0,0,0,0,0,0,0,0,0,0,0,0,0,0,0,0,0,0,0,0,0,0,0,0,0,0,0,0,0,0,0,0,-1.2168,-1.2168,0,-1.2222,-1.2223,-1.2223,-1.2225,-1.2225,-1.2224,-1.2223,-1.2279,-1.2281,-1.2283,0,0,0,0,0,0,0,0,0,0,0,0,0,-1.2064,-1.2066,-1.2167,-1.2168,-1.2169,-1.2222,-1.2223,-1.2224,-1.2225,-1.2225,-1.2224,-1.2223,-1.2278,-1.2281,-1.2283,0,0,0,0,0,0,0,0,0,0,0,0,0,-1.2113,-1.2066,-1.2167,-1.2176,-1.2177,-1.2222,-1.2223,-1.2224,-1.2226,-1.2225,-1.2224,-1.2223,-1.2277,-1.228,-1.2283,-1.2323,0,0,-1.2293,-1.2294,0,0,0,0,0,0,0,0,-1.211,-1.2116,-1.2174,-1.2176,-1.2177,-1.2216,-1.2207,-1.2257,-1.2226,-1.2207,-1.2223,-1.2222,-1.2259,-1.2263,-1.2276,-1.2325,-1.2328,-1.2293,-1.2295,-1.2297,-1.2297,0,0,0,0,0,0,0,-1.2106,-1.2114,-1.2189,-1.2175,-1.2177,-1.2177,-1.2183,-1.2216,-1.2238,-1.2209,-1.2209,-1.2216,-1.2259,-1.2273,-1.2277,-1.2328,-1.2293,-1.2296,-1.2298,-1.2299,-1.2413,-1.2414,0,0,0,0,0,0,-1.2101,-1.2111,-1.2187,-1.2191,-1.214,-1.218,-1.2186,-1.2204,-1.2237,-1.2242,-1.2216,-1.2215,-1.2268,-1.2273,-1.2279,-1.2328,-1.2297,-1.2299,-1.2301,-1.2412,-1.2413,-1.2414,0,0,0,0,0,0,-1.2099,-1.2108,-1.2185,-1.2151,-1.2161,-1.2183,-1.2203,-1.2206,-1.2219,-1.2243,-1.2247,-1.2226,-1.2267,-1.2274,-1.2312,-1.2329,-1.2301,-1.2304,-1.241,-1.2412,-1.2414,-1.2425,0,0,0,0,0,0,-1.2096,-1.2107,-1.2123,-1.2151,-1.2163,-1.2218,-1.2204,-1.2208,-1.2225,-1.2224,-1.2253,-1.2257,-1.2267,-1.2307,-1.2315,-1.2333,-1.2306,-1.2409,-1.2411,-1.2413,-1.2423,-1.2426,-1.243,0,0,0,0,0,-1.2092,-1.2124,-1.2124,-1.2133,-1.2182,-1.2219,-1.2225,-1.2236,-1.2226,-1.2242,-1.2257,-1.2256,-1.2326,-1.2311,-1.232,-1.2339,-1.2408,-1.241,-1.2413,-1.2421,-1.2426,-1.243,0,0,0,0,0,0,-1.2096,-1.2127,-1.2128,-1.2169,-1.2191,-1.2219,-1.2239,-1.224,-1.2265,-1.2263,-1.2275,-1.2282,-1.2319,-1.2333,-1.2315,-1.2379,-1.2366,-1.237,-1.2369,-1.2373,-1.2377,-1.2373,-1.2309,0,0,0,0,0,-1.2102,-1.2129,-1.2154,-1.2188,-1.2199,-1.2217,-1.2233,-1.224,-1.2263,-1.2272,-1.229,-1.2312,-1.2339,-1.2357,-1.2383,-1.2424,-1.2431,-1.2442,-1.2445,-1.2448,-1.2452,-1.2475,-1.2481,-1.2423,-1.2423,-1.2423,0,0,-1.2114,-1.2134,-1.2151,-1.219,-1.2208,-1.2235,-1.2225,-1.2255,-1.2275,-1.2277,-1.2313,-1.2327,-1.2352,-1.2392,-1.241,-1.2405,-1.2469,-1.2451,-1.2453,-1.2456,-1.2478,-1.2484,-1.2489,-1.2424,-1.2424,-1.2424,0,0,-1.2151,-1.2168,-1.2199,-1.2217,-1.2244,-1.2255,-1.2262,-1.229,-1.2299,-1.2336,-1.2338,-1.2362,-1.2408,-1.2426,-1.2441,-1.2484,-1.2484,-1.2492,-1.251,-1.2533,-1.2537,-1.2541,-1.2557,-1.2563,-1.2495,-1.2495,-1.2495,0,-1.2162,-1.2204,-1.2214,-1.2244,-1.2261,-1.2263,-1.2294,-1.2311,-1.2345,-1.2357,-1.235,-1.2407,-1.2425,-1.2469,-1.2479,-1.2491,-1.25,-1.2489,-1.2536,-1.254,-1.2544,-1.2559,-1.2565,-1.2496,-1.2496,-1.2496,-1.2496,0,-1.2218,-1.2246,-1.2268,-1.2301,-1.232,-1.235,-1.2365,-1.2383,-1.2387,-1.2399,-1.2436,-1.2457,-1.2488,-1.2498,-1.2502,-1.2543,-1.2538,-1.2533,-1.2521,-1.255,-1.2565,-1.2571,-1.2497,-1.2497,-1.2497,-1.2497,0,0,-1.226,-1.2297,-1.2305,-1.232,-1.235,-1.2372,-1.2402,-1.2432,-1.2448,-1.247,-1.2496,-1.2534,-1.253,-1.2547,-1.2553,-1.2573,-1.2606,-1.2565,-1.2566,-1.2573,-1.2652,-1.2657,-1.2663,-1.2605,-1.2606,-1.2607,-1.265,0,-1.23,-1.2354,-1.2364,-1.2411,-1.2438,-1.2439,-1.2465,-1.2486,-1.2498,-1.2522,-1.2535,-1.2562,-1.2553,-1.2564,-1.2583,-1.2598,-1.2622,-1.2594,-1.263,-1.2631,-1.2625,-1.2671,-1.2676,-1.2716,-1.2656,-1.2657,-1.2657,0,-1.2355,-1.238,-1.243,-1.2456,-1.2467,-1.2491,-1.2519,-1.2541,-1.2565,-1.2572,-1.2591,-1.2594,-1.2625,-1.261,-1.2653,-1.2634,-1.2648,-1.2657,-1.2659,-1.2664,-1.2647,-1.2678,-1.2729,-1.2735,-1.2666,-1.2666,-1.2665,0,-1.2382,-1.2428,-1.2464,-1.2476,-1.2507,-1.2523,-1.2537,-1.2559,-1.2576,-1.26,-1.2612,-1.2639,-1.2654,-1.2675,-1.2685,-1.2673,-1.2727,-1.2713,-1.2735,-1.2734,-1.2747,-1.2747,-1.2802,-1.2754,-1.2754,-1.2754,-1.2754,0,-1.2428,-1.2458,-1.2476,-1.2498,-1.2533,-1.2543,-1.2576,-1.2589,-1.2609,-1.2633,-1.2636,-1.2658,-1.2671,-1.2695,-1.2704,-1.2738,-1.2744,-1.2751,-1.2753,-1.2752,-1.2751,-1.2763,-1.2761,-1.2756,-1.2755,-1.2755,-1.2755,0,-1.2464,-1.2478,-1.2517,-1.2543,-1.255,-1.2574,-1.2596,-1.2617,-1.2628,-1.2659,-1.2667,-1.2684,-1.2713,-1.2725,-1.2761,-1.2766,-1.2806,-1.2805,-1.2798,-1.28,-1.2821,-1.2819,-1.2887,-1.2897,-1.2841,-1.2842,-1.2842,0,-1.2493,-1.2517,-1.2545,-1.2562,-1.2576,-1.2603,-1.262,-1.263,-1.2648,-1.2676,-1.2694,-1.2723,-1.2747,-1.2793,-1.2809,-1.2836,-1.2837,-1.2858,-1.2841,-1.2839,-1.2838,-1.2838,-1.284,-1.2862,-1.2863,-1.2863,-1.2864,0,-1.2543,-1.2549,-1.2574,-1.2602,-1.2623,-1.2645,-1.2666,-1.268,-1.2693,-1.2713,-1.2743,-1.2762,-1.2798,-1.2826,-1.2854,-1.2868,-1.2868,-1.2869,-1.2875,-1.2875,-1.287,-1.2874,-1.2809,-1.2868,-1.2867,-1.2867,-1.2867,-1.2867,-1.2578,-1.2599,-1.2623,-1.2651,-1.2668,-1.2688,-1.2709,-1.2723,-1.2748,-1.2778,-1.2782,-1.2814,-1.2836,-1.2874,-1.2888,-1.2913,-1.2907,-1.2917,-1.2919,-1.2922,-1.2924,-1.2865,-1.2918,-1.2918,-1.2918,-1.2917,-1.2917,0,-1.2629,-1.2644,-1.267,-1.27,-1.2722,-1.272,-1.2743,-1.2762,-1.279,-1.2811,-1.2834,-1.2868,-1.2896,-1.2913,-1.2941,-1.2957,-1.2958,-1.2964,-1.2964,-1.2967,-1.2927,-1.2919,-1.2963,-1.2963,-1.2963,-1.2963,-1.2963,-1.2963,-1.2659,-1.2695,-1.2703,-1.2747,-1.2761,-1.2793,-1.2807,-1.2825,-1.2841,-1.2879,-1.2902,-1.2913,-1.2933,-1.2962,-1.2987,-1.2991,-1.3002,-1.3009,-1.3013,-1.2975,-1.297,-1.2966,-1.2958,-1.301,-1.301,-1.3051,-1.3052,-1.3052]},{"header":{"parameterUnit":"m.s-1","parameterCategory":1,"la1":30.2991,"la2":30.254,"lo1":-89.0895,"lo2":-89.0444,"dy":0.0017,"dx":0.0017,"nx":28,"ny":28,"refTime":"2025-09-05T21:00:00:Z","depth":0,"parameterNumber":3,"parameterNumberName":"V-component_of_WINDS"},"data":[0,0,0,0,0,0,0,0,0,0,0,0,0,0,0,0,0,0,0,0,0,0,0,0,0,0,0,0,0,0,0,0,0,0,0,0,0,0,0,0,0,0,0,0,0,0,0,0,0,0,0,0,0,0,0,0,0,0,-4.9235,-4.9235,0,-4.9289,-4.929,-4.929,-4.9256,-4.9254,-4.9252,-4.9251,-4.9301,-4.9304,-4.9307,0,0,0,0,0,0,0,0,0,0,0,0,0,-4.9096,-4.9099,-4.9235,-4.9235,-4.9236,-4.9289,-4.929,-4.929,-4.9256,-4.9254,-4.9252,-4.925,-4.93,-4.9303,-4.9307,0,0,0,0,0,0,0,0,0,0,0,0,0,-4.9154,-4.91,-4.9235,-4.9225,-4.9225,-4.9289,-4.929,-4.9291,-4.9256,-4.9254,-4.9251,-4.9249,-4.9299,-4.9303,-4.9307,-4.9382,0,0,-4.932,-4.9322,0,0,0,0,0,0,0,0,-4.9151,-4.9159,-4.9226,-4.9226,-4.9226,-4.9263,-4.9259,-4.9321,-4.9257,-4.9244,-4.9251,-4.9248,-4.929,-4.9295,-4.931,-4.9384,-4.9386,-4.9321,-4.9323,-4.9325,-4.9326,0,0,0,0,0,0,0,-4.9147,-4.9156,-4.9256,-4.9227,-4.9227,-4.9217,-4.9222,-4.9271,-4.928,-4.9245,-4.9243,-4.925,-4.9289,-4.9306,-4.9311,-4.9387,-4.9321,-4.9324,-4.9327,-4.9329,-4.9525,-4.9528,0,0,0,0,0,0,-4.9144,-4.9153,-4.9254,-4.9258,-4.9182,-4.9221,-4.9228,-4.9254,-4.9279,-4.9281,-4.9252,-4.9248,-4.93,-4.9306,-4.9313,-4.9402,-4.9325,-4.9329,-4.9331,-4.9522,-4.9526,-4.9529,0,0,0,0,0,0,-4.9141,-4.9154,-4.9252,-4.9205,-4.9217,-4.9226,-4.9256,-4.9256,-4.9273,-4.9284,-4.9285,-4.9268,-4.9298,-4.9307,-4.9365,-4.9404,-4.9331,-4.9335,-4.9519,-4.9523,-4.9527,-4.9582,0,0,0,0,0,0,-4.9138,-4.9153,-4.9182,-4.9206,-4.9219,-4.9305,-4.9258,-4.9259,-4.9281,-4.9276,-4.9299,-4.9301,-4.9297,-4.9359,-4.937,-4.9408,-4.9338,-4.9516,-4.9521,-4.9526,-4.9577,-4.9587,-4.9596,0,0,0,0,0,-4.9133,-4.9194,-4.9184,-4.9196,-4.9257,-4.9308,-4.9315,-4.9311,-4.9284,-4.9313,-4.9321,-4.93,-4.9398,-4.9366,-4.9377,-4.9417,-4.9513,-4.952,-4.9525,-4.9572,-4.9585,-4.9596,0,0,0,0,0,0,-4.9172,-4.9197,-4.9186,-4.9257,-4.9281,-4.9302,-4.9338,-4.9325,-4.9355,-4.935,-4.9342,-4.9347,-4.9409,-4.9418,-4.9382,-4.9491,-4.9451,-4.946,-4.9483,-4.9495,-4.9505,-4.9501,-4.9342,0,0,0,0,0,-4.9189,-4.9231,-4.9249,-4.931,-4.9323,-4.9329,-4.9351,-4.9346,-4.9369,-4.9379,-4.939,-4.9413,-4.9448,-4.9472,-4.9505,-4.9578,-4.9582,-4.9611,-4.9621,-4.9629,-4.9636,-4.9676,-4.9689,-4.9548,-4.9548,-4.9548,0,0,-4.9225,-4.9243,-4.9269,-4.9318,-4.9336,-4.9378,-4.9337,-4.9382,-4.9413,-4.9385,-4.9442,-4.9451,-4.9475,-4.9542,-4.9571,-4.9552,-4.9676,-4.9636,-4.9643,-4.9646,-4.9684,-4.9697,-4.9709,-4.9552,-4.9552,-4.9551,0,0,-4.9311,-4.9329,-4.9383,-4.9402,-4.9431,-4.9434,-4.9447,-4.9471,-4.9477,-4.9534,-4.9514,-4.9549,-4.9611,-4.9629,-4.9647,-4.9741,-4.9724,-4.9752,-4.9803,-4.9842,-4.9853,-4.9863,-4.9898,-4.991,-4.9759,-4.976,-4.976,0,-4.9351,-4.9415,-4.9411,-4.9459,-4.9481,-4.946,-4.9513,-4.9531,-4.9568,-4.9583,-4.9561,-4.9639,-4.9654,-4.9724,-4.9748,-4.9762,-4.9776,-4.975,-4.9852,-4.9862,-4.9871,-4.9904,-4.9917,-4.9763,-4.9763,-4.9762,-4.9762,0,-4.9463,-4.9507,-4.9547,-4.9586,-4.9612,-4.9662,-4.9665,-4.9692,-4.9685,-4.9691,-4.9749,-4.9766,-4.9804,-4.982,-4.9812,-4.989,-4.9877,-4.9854,-4.9813,-4.9888,-4.9919,-4.9931,-4.9768,-4.9767,-4.9766,-4.9765,0,0,-4.9575,-4.9613,-4.9628,-4.9646,-4.9676,-4.971,-4.9758,-4.9797,-4.982,-4.9846,-4.9887,-4.994,-4.992,-4.9939,-4.9934,-4.9968,-5.0043,-4.994,-4.9941,-4.996,-5.013,-5.0148,-5.0162,-5.0031,-5.0033,-5.0035,-5.0128,0,-4.9664,-4.9752,-4.9751,-4.9832,-4.9873,-4.9854,-4.9896,-4.9919,-4.9926,-4.996,-4.9966,-5.0005,-4.9974,-4.9986,-5.0019,-5.0027,-5.0077,-5.002,-5.0068,-5.007,-5.0064,-5.0178,-5.0197,-5.0284,-5.014,-5.0142,-5.0143,0,-4.978,-4.9813,-4.9899,-4.9925,-4.9942,-4.998,-5.0016,-5.0049,-5.0074,-5.0076,-5.01,-5.0089,-5.0137,-5.0096,-5.0162,-5.0124,-5.0143,-5.015,-5.0153,-5.0158,-5.0112,-5.0187,-5.0312,-5.0325,-5.0162,-5.0161,-5.0159,0,-4.9855,-4.992,-4.998,-4.9996,-5.0027,-5.0055,-5.0069,-5.0091,-5.0115,-5.0145,-5.016,-5.0195,-5.0214,-5.0241,-5.0239,-5.0209,-5.0307,-5.0265,-5.031,-5.031,-5.0332,-5.0331,-5.0462,-5.0343,-5.0343,-5.0343,-5.0343,0,-4.9955,-5.0008,-5.0015,-5.0052,-5.0111,-5.0108,-5.0167,-5.0177,-5.0198,-5.0236,-5.022,-5.0255,-5.0251,-5.0286,-5.0285,-5.0341,-5.0349,-5.0352,-5.0351,-5.0354,-5.0354,-5.0367,-5.0362,-5.0346,-5.0346,-5.0345,-5.0344,0,-5.0048,-5.0055,-5.012,-5.0145,-5.0152,-5.0195,-5.0215,-5.025,-5.0255,-5.0304,-5.0315,-5.0323,-5.0364,-5.0365,-5.0411,-5.0411,-5.0479,-5.0471,-5.0472,-5.047,-5.0516,-5.0512,-5.0661,-5.0681,-5.0548,-5.055,-5.0551,0,-5.0112,-5.0154,-5.0184,-5.0209,-5.0226,-5.0266,-5.0291,-5.0289,-5.0315,-5.0347,-5.0378,-5.0418,-5.045,-5.0516,-5.0526,-5.0561,-5.0554,-5.0604,-5.0559,-5.0561,-5.0556,-5.0554,-5.0558,-5.0613,-5.0614,-5.0615,-5.0616,0,-5.0225,-5.0227,-5.0264,-5.0304,-5.0334,-5.0364,-5.0391,-5.0413,-5.0414,-5.0444,-5.0487,-5.0512,-5.0561,-5.06,-5.0635,-5.0647,-5.0632,-5.063,-5.0643,-5.0647,-5.0646,-5.0648,-5.0497,-5.0627,-5.0626,-5.0625,-5.0625,-5.0624,-5.0307,-5.0343,-5.0371,-5.0413,-5.0434,-5.0461,-5.0495,-5.0506,-5.0543,-5.0584,-5.058,-5.0628,-5.0651,-5.0697,-5.0712,-5.0749,-5.0731,-5.0749,-5.0754,-5.0758,-5.0764,-5.064,-5.0755,-5.0754,-5.0754,-5.0754,-5.0754,0,-5.042,-5.0437,-5.0476,-5.0517,-5.055,-5.0535,-5.0565,-5.0593,-5.0637,-5.0661,-5.0693,-5.0743,-5.0782,-5.0795,-5.0832,-5.0859,-5.0853,-5.0869,-5.0867,-5.087,-5.0777,-5.0763,-5.0873,-5.0873,-5.0873,-5.0873,-5.0873,-5.0873,-5.0483,-5.0544,-5.0549,-5.0621,-5.0636,-5.0685,-5.0704,-5.0728,-5.0748,-5.0805,-5.0838,-5.0847,-5.0866,-5.0905,-5.094,-5.0942,-5.0957,-5.0976,-5.0976,-5.0889,-5.0877,-5.0865,-5.0852,-5.0979,-5.0979,-5.1066,-5.1067,-5.1068]}]]